User: anonymous   Login
Location: Albany
(35.0000°S, 118.0000°E)
Time: 20:15:27
(UTC-04:00)
Language:

Cosmos 1758 Rocket - Orbit

View from above orbital plane
View from above orbital plane
View from above satellite
View from above satellite

Ground track
Ground track

The orbit data is extracted from the following two-line orbital elements,

1 16792U 86046B   16206.44454823  .00000109  00000-0  10477-4 0  9991
2 16792  82.4843 150.7827 0022836 293.9236 205.6213 14.83078606626300
Epoch (UTC): 24 July 2016 10:40:08
Eccentricity: 0.0022836
inclination: 82.4843°
perigee height: 603 km
apogee height: 635 km
right ascension of ascending node: 150.7827°
argument of perigee: 293.9236°
revolutions per day: 14.83078606
mean anomaly at epoch: 205.6213°
orbit number at epoch: 62630

The dashed part of the orbit path shows where the satellite is in the earth's shadow,  

DLR